Tracking 27112 objects as of 26-Mar-2023
HD Live streaming from Space Station
objects crossing your sky now

WESTFORD NEEDLES

Track WESTFORD NEEDLES now!
10-day predictions
WESTFORD NEEDLES is classified as:


NORAD ID: 19051
Int'l Code: 1963-014EA
Perigee: 2,940.5 km
Apogee: 4,328.3 km
Inclination: 87.2 °
Period: 166.0 minutes
Semi major axis: 10005 km
RCS: 0.357 m2 (medium)
Launch date: May 9, 1963
Source: United States (US)
Launch site: AIR FORCE WESTERN TEST RANGE (AFWTR)
Your satellite tracking list
Your tracking list is empty




NASA's NSSDC Master Catalog

Two Line Element Set (TLE):
1 19051U 63014EA  23084.89139904  .00000018  00000-0  46042-2 0  9997
2 19051  87.2449 265.5810 0693527 115.2757 252.1584  8.67466127341135
Source of the keplerian elements: AFSPC